Weather History for VTCC - September, 2013

Change the Weather History Date:

Friday, September 6, 2013

  Actual Average Record
Temperature  
Mean Temperature 81 °F -  
Max Temperature 88 °F 85 °F 93 °F (2010)
Min Temperature 74 °F 72 °F 71 °F (1996)
Cooling Degree Days 16    
Growing Degree Days 31 (Base 50)    
Moisture  
Dew Point 72 °F    
Average Humidity 80    
Maximum Humidity 95    
Minimum Humidity 55    
Precipitation  
Precipitation 0.28 in 0.27 in - ()
Sea Level Pressure  
Sea Level Pressure 29.86 in    
Wind  
Wind Speed 4 mph ()    
Max Wind Speed 15 mph    
Max Gust Speed -    
Visibility 5.6 miles    
Events Rain    
Averages and records for this station are not official NWS values.
T = Trace of Precipitation, MM = Missing Value Source: Averaged Metar Reports

Daily Weather History Graph

Daily Weather History Graph

Search for Another Location

Airport or City:

Trip Planner

Search our weather history database for the weather conditions in past years. The results will help you decide how hot, cold, wet, or windy it might be!

Date:

Astronomy

Sep. 06, 2013 Rise Set
Actual Time 6:10 AM ICT 6:34 PM ICT
Civil Twilight 5:48 AM ICT 6:56 PM ICT
Nautical Twilight 5:22 AM ICT 7:22 PM ICT
Astronomical Twilight 4:56 AM ICT 7:48 PM ICT
Moon 6:37 AM ICT (9/6) 6:58 PM ICT (9/6)
Length of Visible Light 13h 08m
Length of Day
12h 24m
New Moon, 1% of the Moon is Illuminated
Sep 6
New Moon
Sep 13
First Quarter
Sep 19
Full
Sep 27
Last Quarter
Oct 5
New

Hourly Weather History & Observations

Time (ICT) Temp. Heat Index Dew Point Humidity Pressure Visibility Wind Dir Wind Speed Gust Speed Precip Events Conditions
12:00 AM 75.2 °F - 71.6 °F 89% 29.86 in 4.3 mi SSE 5.8 mph - N/A Rain Rain
12:30 AM 75.2 °F - 71.6 °F 89% 29.86 in 4.3 mi SSE 5.8 mph - N/A Rain Rain
1:00 AM 75 °F - 74 °F 95% 29.82 in 5 mi Calm Calm - - Rain Light Rain
1:30 AM 75.2 °F - 71.6 °F 89% 29.83 in 5.0 mi ESE 2.3 mph - N/A Rain Light Rain
2:00 AM 75.2 °F - 71.6 °F 89% 29.83 in 5.0 mi East 2.3 mph - N/A Rain Light Rain
2:30 AM 75.2 °F - 71.6 °F 89% 29.83 in 5.0 mi ESE 2.3 mph - N/A Rain Light Rain
3:00 AM 75.2 °F - 71.6 °F 89% 29.83 in 5.0 mi Calm Calm - N/A Rain Light Rain
3:30 AM 75.2 °F - 71.6 °F 89% 29.83 in 5.0 mi Calm Calm - N/A Rain Light Rain
4:00 AM 75.2 °F - 71.6 °F 89% 29.83 in 5.0 mi Calm Calm - N/A Rain Light Rain
4:30 AM 75.2 °F - 71.6 °F 89% 29.83 in 5.0 mi NE 2.3 mph - N/A Rain Light Rain
5:00 AM 75.2 °F - 71.6 °F 89% 29.86 in 5.0 mi SE 2.3 mph - N/A Rain Light Rain
5:30 AM 73.4 °F - 71.6 °F 94% 29.86 in 5.0 mi SSE 2.3 mph - N/A Rain Light Rain
6:00 AM 75.2 °F - 71.6 °F 89% 29.86 in 5.0 mi South 4.6 mph - N/A Rain Light Rain
6:30 AM 75.2 °F - 71.6 °F 89% 29.86 in 4.3 mi South 5.8 mph - N/A Rain Light Rain
7:00 AM 75 °F - 74 °F 95% 29.83 in 4 mi Calm Calm - - Rain Light Rain
7:00 AM 75.2 °F - 71.6 °F 89% 29.86 in 4.3 mi South 5.8 mph - N/A Rain Light Rain
7:30 AM 75.2 °F - 71.6 °F 89% 29.89 in 4.3 mi South 6.9 mph - N/A Rain Light Rain
8:00 AM 75.2 °F - 71.6 °F 89% 29.89 in 4.3 mi South 6.9 mph - N/A Rain Light Rain
8:30 AM 77.0 °F - 73.4 °F 89% 29.89 in 4.3 mi SSW 6.9 mph - N/A Rain Light Rain
9:00 AM 77.0 °F - 71.6 °F 83% 29.89 in 6.2 mi SSW 6.9 mph - N/A   Mostly Cloudy
9:30 AM 78.8 °F - 73.4 °F 83% 29.92 in 6.2 mi South 8.1 mph - N/A   Mostly Cloudy
10:00 AM 78.8 °F - 73.4 °F 83% 29.92 in 6.2 mi South 4.6 mph - N/A   Mostly Cloudy
10:30 AM 80.6 °F 84.6 °F 71.6 °F 74% 29.92 in 6.2 mi South 3.5 mph - N/A   Mostly Cloudy
11:00 AM 80.6 °F 84.6 °F 71.6 °F 74% 29.89 in 6.2 mi SSW 3.5 mph - N/A   Scattered Clouds
11:30 AM 84.2 °F 89.6 °F 71.6 °F 66% 29.89 in 6.2 mi SSE 5.8 mph - N/A   Scattered Clouds
12:00 PM 82.4 °F 87.2 °F 71.6 °F 70% 29.89 in 6.2 mi SSE 5.8 mph - N/A   Scattered Clouds
12:30 PM 84.2 °F 88.4 °F 69.8 °F 62% 29.86 in 6.2 mi SW 3.5 mph - N/A   Scattered Clouds
1:00 PM 86.0 °F 90.4 °F 69.8 °F 58% 29.86 in 6.2 mi WSW 2.3 mph - N/A   Scattered Clouds
1:30 PM 86.0 °F 90.4 °F 69.8 °F 58% 29.83 in 6.2 mi ENE 2.3 mph - N/A   Scattered Clouds
2:00 PM 86.0 °F 91.8 °F 71.6 °F 62% 29.80 in 6.2 mi NNE 3.5 mph - N/A   Scattered Clouds
2:30 PM 87.8 °F 93.8 °F 71.6 °F 58% 29.80 in 6.2 mi NNE 4.6 mph - N/A   Scattered Clouds
3:00 PM 86.0 °F 89.4 °F 68.0 °F 55% 29.77 in 6.2 mi ESE 4.6 mph - N/A   Scattered Clouds
3:30 PM 87.8 °F 92.6 °F 69.8 °F 55% 29.77 in 6.2 mi SE 5.8 mph - N/A   Scattered Clouds
4:00 PM 84.2 °F 88.4 °F 69.8 °F 62% 29.77 in 6.2 mi SE 9.2 mph - N/A   Mostly Cloudy
4:30 PM 80.6 °F 84.6 °F 71.6 °F 74% 29.80 in 3.7 mi South 15.0 mph - N/A Rain Rain Showers
5:00 PM 78.8 °F - 71.6 °F 78% 29.80 in 6.2 mi SW 4.6 mph - N/A   Mostly Cloudy
5:30 PM 78.8 °F - 71.6 °F 78% 29.80 in 6.2 mi South 8.1 mph - N/A   Mostly Cloudy
6:00 PM 77.0 °F - 73.4 °F 89% 29.83 in 6.2 mi WSW 4.6 mph - N/A   Mostly Cloudy
6:30 PM 78.8 °F - 71.6 °F 78% 29.83 in 6.2 mi SSW 8.1 mph - N/A   Scattered Clouds
7:00 PM 79 °F - 73 °F 78% 29.77 in 6 mi SSW 2.3 mph - -   Overcast
7:00 PM 78.8 °F - 71.6 °F 78% 29.83 in 6.2 mi South 6.9 mph - N/A   Scattered Clouds
7:30 PM 77.0 °F - 71.6 °F 83% 29.86 in 6.2 mi WNW 5.8 mph - N/A   Scattered Clouds
8:00 PM 77.0 °F - 71.6 °F 83% 29.86 in 6.2 mi Calm Calm - N/A   Scattered Clouds
8:30 PM 77.0 °F - 71.6 °F 83% 29.89 in 6.2 mi SW 3.5 mph - N/A   Scattered Clouds
9:00 PM 77.0 °F - 71.6 °F 83% 29.92 in 6.2 mi Calm Calm - N/A   Scattered Clouds
9:30 PM 77.0 °F - 71.6 °F 83% 29.92 in 6.2 mi Calm Calm - N/A   Scattered Clouds
10:00 PM 77.0 °F - 71.6 °F 83% 29.92 in 6.2 mi Calm Calm - N/A   Scattered Clouds
10:30 PM 77.0 °F - 71.6 °F 83% 29.95 in 6.2 mi NW 2.3 mph - N/A   Scattered Clouds
11:00 PM 77.0 °F - 71.6 °F 83% 29.95 in 6.2 mi Calm Calm - N/A   Scattered Clouds
11:30 PM 77.0 °F - 71.6 °F 83% 29.95 in 6.2 mi Calm Calm - N/A   Scattered Clouds